Location: Del Amo
(33.8464°N, 118.2104°W)
Time: 18:10:05
(UTC+00:00)

Vanguard 3 - Pass Details

Date: 15 September 2024
Orbit: 507 x 3224 km, 33.4° (Epoch: 05 October)

Event Time Altitude Azimuth Distance (km) Brightness Sun altitude
Rises 16:22:57 0° 262° (W) 7,040 11.5 33.1°
Reaches altitude 10° 16:27:32 10° 262° (W) 6,119 11.3 33.9°
Maximum altitude 16:47:38 88° 176° (S) 2,919 10.6 37.7°
Drops below altitude 10° 17:02:11 10° 89° (E) 4,645 11.9 40.4°
Sets 17:05:09 0° 89° (E) 5,346 12.0 40.9°
